Tracking 19976 objects as of 15-Nov-2019
Live streaming from Space Station
objects crossing your sky now

COSMOS 1275 DEB

Track COSMOS 1275 DEB now!
10-day predictions


NORAD ID: 12766
Int'l Code: 1981-053DK
Perigee: 939.8 km
Apogee: 1,091.1 km
Inclination: 82.9 °
Period: 105.3 minutes
Semi major axis: 7386 km
RCS: 0.051 m2 (small)
Launch date: June 4, 1981
Source: Commonwealth of Independent States (former USSR) (CIS)
Launch site: PLESETSK MISSILE AND SPACE COMPLEX (PKMTR)

Note: This is SATELLITE DEBRIS
aabbcc
Your satellite tracking list
Your tracking list is empty




NASA's NSSDC Master Catalog

Two Line Element Set (TLE):
1 12766U 81053DK  19318.38758012 -.00000304  00000-0 -36659-3 0  9996
2 12766  82.9465  81.1862 0102444  85.7347 329.1461 13.67566123902910
Source of the keplerian elements: AFSPC